(°C)
10°
13°
17°
20°
24°
(°C)
10°
15°
18°
22°
ССВ
ССВ
СВ
СВ
В
Ю
ЮЗ
(км/ч)
4-9
4-9
4-9
4-9
3-9
3-7
3-7
(мм)
0
0
0
0
0
0
0
(%)
0
0
0
0
0
0
0

Высота солнцестояния

/ -27.1°
sun-icon
UV 6
07:26
19:29
Убывающая луна (242°)
22:23
12:39

METAR для Ioánnina (LGIO)

Время Условия Температура/
Точка росы
Ветер Видимость Погода Облачность Давление Изменить Необработанный
7°C / 6°C variable 1kt - 1023 - LGIO 260150Z AUTO VRB01KT //// // ////// 07/06 Q1023 RE//
8°C / 6°C variable 1kt - 1023 - LGIO 260120Z AUTO VRB01KT //// // ////// 08/06 Q1023 RE//
9°C / 7°C variable 1kt - 1023 - LGIO 260050Z AUTO VRB01KT //// // ////// 09/07 Q1023 RE//
9°C / 7°C variable 2kt - 1023 - LGIO 260020Z AUTO VRB02KT //// // ////// 09/07 Q1023 RE//
9°C / 7°C variable 0kt - 1023 - LGIO 252350Z AUTO 00000KT //// // ////// 09/07 Q1023 RE//
10°C / 8°C variable 2kt - 1023 - LGIO 252320Z AUTO VRB02KT //// // ////// 10/08 Q1023 RE//
11°C / 8°C variable 0kt - 1023 - LGIO 252250Z AUTO 00000KT //// // ////// 11/08 Q1023 RE//
10°C / 8°C variable 1kt - 1023 - LGIO 252220Z AUTO VRB01KT //// // ////// 10/08 Q1023 RE//
11°C / 8°C variable 0kt - 1023 - LGIO 252150Z AUTO 00000KT //// // ////// 11/08 Q1023 RE//
11°C / 8°C variable 1kt - 1023 - LGIO 252120Z AUTO VRB01KT //// // ////// 11/08 Q1023 RE//
13°C / 9°C variable 3kt - 1023 - LGIO 252050Z AUTO VRB03KT //// // ////// 13/09 Q1023 RE//
14°C / 9°C variable 1kt - 1023 - LGIO 252020Z AUTO VRB01KT //// // ////// 14/09 Q1023 RE//
VFR 14°C / 8°C variable 0kt >10km - Clouds and Visibility OK 1023 - LGIO 251950Z 00000KT CAVOK 14/08 Q1023
VFR 15°C / 8°C variable 0kt >10km - Clouds and Visibility OK 1023 - LGIO 251920Z 00000KT CAVOK 15/08 Q1023
VFR 17°C / 8°C variable 0kt >10km - Clouds and Visibility OK 1022 - LGIO 251850Z 00000KT CAVOK 17/08 Q1022
VFR 18°C / 8°C variable 0kt >10km - Clouds and Visibility OK 1022 - LGIO 251820Z 00000KT CAVOK 18/08 Q1022
18°C / 8°C variable 1kt - 1022 - LGIO 251750Z AUTO VRB01KT //// // ////// 18/08 Q1022 RE//
19°C / 8°C variable 1kt - 1022 - LGIO 251720Z AUTO VRB01KT //// // ////// 19/08 Q1022 RE//
22°C / 7°C variable 2kt - 1021 - LGIO 251650Z AUTO VRB02KT //// // ////// 22/07 Q1021 RE//
23°C / 7°C variable 3kt - 1021 - LGIO 251620Z AUTO VRB03KT //// // ////// 23/07 Q1021 RE//
26°C / 7°C 300º variable 240º to 310º 4kt - 1021 - LGIO 251550Z AUTO 30004KT 240V310 //// // ////// 26/07 Q1021 RE//
27°C / 7°C 290º variable 250º to 310º 7kt - 1020 - LGIO 251520Z AUTO 29007KT 250V310 //// // ////// 27/07 Q1020 RE//
29°C / 3°C variable 2kt - 1020 - LGIO 251450Z AUTO VRB02KT //// // ////// 29/03 Q1020 RE//
29°C / 3°C 280º variable 250º to 310º 5kt - 1020 - LGIO 251420Z AUTO 28005KT 250V310 //// // ////// 29/03 Q1020 RE//

7°C / 6°C

[Больше]
Ветер variable 1kt
Видимость
Погода -
Облачность
Давление 1023
Изменить -
Необработанный LGIO 260150Z AUTO VRB01KT //// // ////// 07/06 Q1023 RE//

8°C / 6°C

[Больше]
Ветер variable 1kt
Видимость
Погода -
Облачность
Давление 1023
Изменить -
Необработанный LGIO 260120Z AUTO VRB01KT //// // ////// 08/06 Q1023 RE//

9°C / 7°C

[Больше]
Ветер variable 1kt
Видимость
Погода -
Облачность
Давление 1023
Изменить -
Необработанный LGIO 260050Z AUTO VRB01KT //// // ////// 09/07 Q1023 RE//

9°C / 7°C

[Больше]
Ветер variable 2kt
Видимость
Погода -
Облачность
Давление 1023
Изменить -
Необработанный LGIO 260020Z AUTO VRB02KT //// // ////// 09/07 Q1023 RE//

9°C / 7°C

[Больше]
Ветер variable 0kt
Видимость
Погода -
Облачность
Давление 1023
Изменить -
Необработанный LGIO 252350Z AUTO 00000KT //// // ////// 09/07 Q1023 RE//

10°C / 8°C

[Больше]
Ветер variable 2kt
Видимость
Погода -
Облачность
Давление 1023
Изменить -
Необработанный LGIO 252320Z AUTO VRB02KT //// // ////// 10/08 Q1023 RE//

11°C / 8°C

[Больше]
Ветер variable 0kt
Видимость
Погода -
Облачность
Давление 1023
Изменить -
Необработанный LGIO 252250Z AUTO 00000KT //// // ////// 11/08 Q1023 RE//

10°C / 8°C

[Больше]
Ветер variable 1kt
Видимость
Погода -
Облачность
Давление 1023
Изменить -
Необработанный LGIO 252220Z AUTO VRB01KT //// // ////// 10/08 Q1023 RE//

11°C / 8°C

[Больше]
Ветер variable 0kt
Видимость
Погода -
Облачность
Давление 1023
Изменить -
Необработанный LGIO 252150Z AUTO 00000KT //// // ////// 11/08 Q1023 RE//

11°C / 8°C

[Больше]
Ветер variable 1kt
Видимость
Погода -
Облачность
Давление 1023
Изменить -
Необработанный LGIO 252120Z AUTO VRB01KT //// // ////// 11/08 Q1023 RE//

13°C / 9°C

[Больше]
Ветер variable 3kt
Видимость
Погода -
Облачность
Давление 1023
Изменить -
Необработанный LGIO 252050Z AUTO VRB03KT //// // ////// 13/09 Q1023 RE//

14°C / 9°C

[Больше]
Ветер variable 1kt
Видимость
Погода -
Облачность
Давление 1023
Изменить -
Необработанный LGIO 252020Z AUTO VRB01KT //// // ////// 14/09 Q1023 RE//

VFR

14°C / 8°C

[Больше]
Ветер variable 0kt
Видимость >10km
Погода -
Облачность Clouds and Visibility OK
Давление 1023
Изменить -
Необработанный LGIO 251950Z 00000KT CAVOK 14/08 Q1023

VFR

15°C / 8°C

[Больше]
Ветер variable 0kt
Видимость >10km
Погода -
Облачность Clouds and Visibility OK
Давление 1023
Изменить -
Необработанный LGIO 251920Z 00000KT CAVOK 15/08 Q1023

VFR

17°C / 8°C

[Больше]
Ветер variable 0kt
Видимость >10km
Погода -
Облачность Clouds and Visibility OK
Давление 1022
Изменить -
Необработанный LGIO 251850Z 00000KT CAVOK 17/08 Q1022

VFR

18°C / 8°C

[Больше]
Ветер variable 0kt
Видимость >10km
Погода -
Облачность Clouds and Visibility OK
Давление 1022
Изменить -
Необработанный LGIO 251820Z 00000KT CAVOK 18/08 Q1022

18°C / 8°C

[Больше]
Ветер variable 1kt
Видимость
Погода -
Облачность
Давление 1022
Изменить -
Необработанный LGIO 251750Z AUTO VRB01KT //// // ////// 18/08 Q1022 RE//

19°C / 8°C

[Больше]
Ветер variable 1kt
Видимость
Погода -
Облачность
Давление 1022
Изменить -
Необработанный LGIO 251720Z AUTO VRB01KT //// // ////// 19/08 Q1022 RE//

22°C / 7°C

[Больше]
Ветер variable 2kt
Видимость
Погода -
Облачность
Давление 1021
Изменить -
Необработанный LGIO 251650Z AUTO VRB02KT //// // ////// 22/07 Q1021 RE//

23°C / 7°C

[Больше]
Ветер variable 3kt
Видимость
Погода -
Облачность
Давление 1021
Изменить -
Необработанный LGIO 251620Z AUTO VRB03KT //// // ////// 23/07 Q1021 RE//

26°C / 7°C

[Больше]
Ветер 300º variable 240º to 310º 4kt
Видимость
Погода -
Облачность
Давление 1021
Изменить -
Необработанный LGIO 251550Z AUTO 30004KT 240V310 //// // ////// 26/07 Q1021 RE//

27°C / 7°C

[Больше]
Ветер 290º variable 250º to 310º 7kt
Видимость
Погода -
Облачность
Давление 1020
Изменить -
Необработанный LGIO 251520Z AUTO 29007KT 250V310 //// // ////// 27/07 Q1020 RE//

29°C / 3°C

[Больше]
Ветер variable 2kt
Видимость
Погода -
Облачность
Давление 1020
Изменить -
Необработанный LGIO 251450Z AUTO VRB02KT //// // ////// 29/03 Q1020 RE//

29°C / 3°C

[Больше]
Ветер 280º variable 250º to 310º 5kt
Видимость
Погода -
Облачность
Давление 1020
Изменить -
Необработанный LGIO 251420Z AUTO 28005KT 250V310 //// // ////// 29/03 Q1020 RE//

TAF для Ioánnina (LGIO)

From till


From till Wind variable 3kt. Visibility 10km or more. Nil Significant Cloud.
With 30% probability, from till Visibility 5000m. Mist . Few Clouds 600ft.

Необработанный: TAF LGIO 252300Z 2600/2609 VRB03KT CAVOK PROB30 2603/2606 5000 BR FEW006

Текущие спутниковые изображения и снимки дождя для Ioánnina, Греция

Указатель местности находится на Ioánnina. [Больше]

Спутниковое изображение в реальном времени сочетает в себе видимый свет в дневное время с инфракрасным излучением в ночное время. Ночью изображение получается не темным, так как инфракрасное излучение может обнаружить разницу температур. К сожалению, низкие облака и туман трудно отличить от температуры у поверхности земли и поэтому могут быть почти незаметны ночью. Спутниковые снимки Meteosat для Европы обновляются каждые 5 минут в режиме реального времени.Снимки GOES-16/GOES-17 (Северная и Южная Америка) и Химавари (Азия) обновляются каждые 10 минут.

Вероятность осадков оценивается по данным радиолокаторов и спутников. Спутниковые данные о возможности осадков в ночное время менее точные, чем дневные данные. Оранжевыми крестами отмечаются места,где обнаруживается молния (болееЕвропа).

Копирайт 2021 EUMETSAT / meteoblue. Данные о молниях предоставляются со стороны nowcast.

Радарный и сверхкраткосрочный прогноз осадков для Ioánnina

Морось
Незначительные
Умеренные
Сильные
Очень Сильные
Град

Индикатор местности находится на Ioánnina. Анимация показывает радар осадков за последний час, а также прогноз погоды для 1h. Морось или небольшой снег могут быть невидимы для радара. Интенсивность осадков имеет цветовую кодировку - от светло-голубого до оранжевого.

Погода в настоящий момент и предупреждения

EUMETNET – MeteoAlarm

pictomap

Источник: HNMS

Возможны временные задержки между сведениями данного веб сайта и веб сайта www.meteoalarm.eu, для получения наиболее недавней информации о сигнальных уровнях, публикуемых со стороны National Meteorological Services, полжалуйста, используйте www.meteoalarm.eu.